AirNav   Pilot Hours Calculator
 
 1408 users online  

KOXD Miami University Airport
Oxford, Ohio, USA

GOING TO OXFORD?


FAA INFORMATION EFFECTIVE 02 JANUARY 2020

Location

FAA Identifier: OXD
Lat/Long: 39-30-08.1000N 084-47-03.7000W
39-30.135000N 084-47.061667W
39.5022500,-84.7843611
(estimated)
Elevation: 1040.5 ft. / 317.1 m (surveyed)
Variation: 04W (1995)
From city: 2 miles W of OXFORD, OH
Time zone: UTC -5 (UTC -4 during Daylight Saving Time)
Zip code: 45056

Airport Operations

Airport use: Open to the public
Activation date: 02/1940
Control tower: no
ARTCC: INDIANAPOLIS CENTER
FSS: DAYTON FLIGHT SERVICE STATION
NOTAMs facility: DAY (NOTAM-D service available)
Attendance: UNATNDD
Wind indicator: lighted
Segmented circle: no
Lights: MIRL RY 05/23 PRESET LOW INTST DUSK-2100; TO INCR INTST & ACTVT REIL RYS 05 & 23 - 122.9; AFT 2100 ACTVT MIRL RY 05/23 & REIL RYS 05 & 23 - 122.9.
Beacon: white-green (lighted land airport)
Operates sunset to sunrise.

Airport Communications

CTAF/UNICOM: 122.8
WX AWOS-3PT: 118.625 (513-273-2032)
CINCINNATI APPROACH: 121.0
CINCINNATI DEPARTURE: 121.0
WX AWOS-3PT at I67 (15 nm S): 118.15 (513-569-4964)
WX ASOS at HAO (15 nm SE): 121.425 (513-863-6137)
WX AWOS-3 at RID (15 nm N): 121.225 (765-983-1903)
WX AWOS-3 at MWO (18 nm E): 120.025 (513-422-3505)
WX AWOS-3 at CEV (20 nm NW): 118.325 (765-827-6649)

Nearby radio navigation aids

VOR radial/distance  VOR name  Freq  Var
CVGr357/29.4CINCINNATI VORTAC117.3004W
DQNr211/35.7DAYTON VOR/DME114.5001W

 
NDB name  Hdg/Dist  Freq  Var  ID
HOOK FIELD275/15.623904WHKF .... -.- ..-.
BATESVILLE072/23.925405WHLB .... .-.. -...
CINCINNATI319/29.133504WLUK .-.. ..- -.-
NEW CASTLE139/33.538506WUWL ..- .-- .-..
SPORTYS318/36.724504WPWF .--. .-- ..-.

Airport Services

Fuel available: 100LL JET-A1+
SELF SERVE AVBL.
Parking: hangars and tiedowns
Bulk oxygen: NONE

Runway Information

Runway 5/23

Dimensions: 4011 x 70 ft. / 1223 x 21 m
Surface: asphalt/grooved, in fair condition
Weight bearing capacity: 
Single wheel: 34.0
Double wheel: 50.0
Runway edge lights: medium intensity
Runway edge markings: MKGS FADED.
RUNWAY 5  RUNWAY 23
Latitude: 39-29.904358N39-30.366910N
Longitude: 084-47.367392W084-46.758348W
Elevation: 1040.1 ft.1034.1 ft.
Traffic pattern: leftleft
Runway heading: 050 magnetic, 046 true230 magnetic, 226 true
Displaced threshold: 270 ft.no
Markings: nonprecision, in good conditionnonprecision, in good condition
Visual slope indicator: 2-light PAPI on left (3.00 degrees glide path)2-light PAPI on left (3.00 degrees glide path)
Runway end identifier lights: yesyes
Touchdown point: yes, no lightsyes, no lights
Obstructions: 10 ft. road, 201 ft. from runway, 115 ft. left of centerline
5 FT FENCE & 10 FT ROAD 75-200 FT FM THLD 250 FT L TO 122 FT L.
24 ft. trees, 381 ft. from runway, 269 ft. left of centerline, 7:1 slope to clear

Airport Ownership and Management from official FAA records

Ownership: Publicly-owned
Owner: MIAMI UNIVERSITY
MIAMI UNIVERSITY ARPT, 101 S. FISHER DR
OXFORD, OH 45056
Phone 513-529-3621
Manager: DANIAL OLTHAUS
7101 FAIRFIELD RD
OXFORD, OH 45056
Phone 513-529-2735
ADDITIONAL PHONE NR 513-529-1855.

Airport Operational Statistics

Aircraft based on the field: 9
Single engine airplanes: 7
Multi engine airplanes: 2
    
Aircraft operations: avg 46/day *
86% local general aviation
13% transient general aviation
<1% air taxi
<1% military
* for 12-month period ending 26 September 2019

Additional Remarks

NO TWY MARKINGS.
FOR CD CTC CINCINNATI APCH AT 859-372-6440

Instrument Procedures

NOTE: All procedures below are presented as PDF files. If you need a reader for these files, you should download the free Adobe Reader.

NOT FOR NAVIGATION. Please procure official charts for flight.
FAA instrument procedures published for use from 02 January 2020 at 0901Z to 30 January 2020 at 0900Z.

 
IAPs - Instrument Approach Procedures
RNAV (GPS) RWY 05 **CHANGED**   download (244KB)
RNAV (GPS) RWY 23 **CHANGED**   download (228KB)
NOTE: Special Take-Off Minimums/Departure Procedures apply   download (164KB)

Other nearby airports with instrument procedures:

I67 - Cincinnati West Airport (15 nm S)
KHAO - Butler County Regional Airport-Hogan Field (15 nm SE)
KRID - Richmond Municipal Airport (15 nm N)
KMWO - Middletown Regional Airport/Hook Field (18 nm E)
KCEV - Mettel Field Airport (20 nm NW)
 
Loc | Ops | Rwys | IFR | FBO | Links
Com | Nav | Svcs | Stats | Notes
Area around KOXD (Miami University Airport)
 
Road maps at: MapQuest Bing Google
 
Aerial photo
WARNING: Photo may not be current or correct
Aerial photo of KOXD (Miami University Airport)
Photo taken 23-Sep-2014
looking north.

Do you have a better or more recent aerial photo of Miami University Airport that you would like to share? If so, please send us your photo.

 
Sectional chart

 
Airport distance calculator
Flying to Miami University Airport? Find the distance to fly.

From to KOXD

Sunrise and sunset
Times for 29-Jan-2020
 Local
(UTC-5)
 Zulu
(UTC)
Morning civil twilight07:2212:22
Sunrise07:5012:50
Sunset17:5422:54
Evening civil twilight18:2323:23

Current date and time
Zulu (UTC)  29-Jan-2020 19:08:02
Local (UTC-5)  29-Jan-2020 14:08:02
 
METAR
KOXD 291859Z AUTO 08005KT 10SM OVC020 01/M01 A3010 RMK AO2 T00071015
KI67 
15nm S 
291855Z AUTO 05005KT 10SM OVC025 01/M03 A3012 RMK AO1
KHAO 
15nm SE 
291853Z AUTO 08006KT 10SM OVC023 01/M03 A3013 RMK AO2 SLP209 T00111033
KRID 
15nm N 
291855Z AUTO 08005KT 10SM OVC024 00/M02 A3012 RMK AO2
KMWO 
18nm E 
291855Z AUTO 07006KT 10SM OVC029 02/M04 A3014 RMK AO2 T00151044
TAF
KCVG 
28nm S 
291738Z 2918/3024 VRB03KT P6SM OVC025 TEMPO 2923/3003 OVC035 FM301700 00000KT P6SM SCT030 OVC050 TEMPO 3017/3021 OVC030
KLUK 
30nm SE 
291738Z 2918/3018 VRB04KT P6SM OVC030 FM292200 00000KT P6SM OVC035 FM301200 00000KT P6SM OVC025 TEMPO 3015/3018 OVC035
NOTAMs
Click for the latest NOTAMs
NOTAMs are issued by the DoD/FAA and will open in a separate window not controlled by AirNav.

 

 
 

FBO, Fuel Providers, and Aircraft Ground Support

  
 Business Name 
 
 Contact 
 
 Services / Description 
 
Fuel Prices
 
Comments
  
Miami University Airport 513-529-2735
513-529-3621
[web site]
[email]
Airport management, Aviation fuel, Aircraft parking (ramp or tiedown), Hangar leasing / sales, Pilots lounge / snooze room, Public telephone, Computerized weather, ...

More info about Miami University Airport
EPIC
100LL Jet A
AS --- $4.25 
SS $4.99 --- 
 Updated 28-Jan-2020
 
   2 read write
AS=Assisted/Self Service
SS=Self service
Update Fuel Prices
 

Would you like to see your business listed on this page?

 If your business provides an interesting product or service to pilots, flight crews, aircraft, or users of the Miami University Airport, you should consider listing it here.  To start the listing process, click on the button below
 
Add a business
 

Other Pages about Miami University Airport

Miami University Airport
 
Update a link
 
Copyright © AirNav, LLC. All rights reserved. Privacy Policy  Contact